This demonstration page uses our WeatherBlox Daily Observations layout. Learn more.

Left ArrowRight Arrow

Hourly Observations for January 15, 2019

Temp ( °F °C ) Dew Point ( °F °C ) Humidity (%) Winds ( mph kmh ) Pressure ( in mb ) Visibility ( mi km ) Precip ( " mm )
12:51 am 00:51 Clear 46 7.8 38 3.3 73 73 SSE 8 13 30.10 1019 10 16 N/A
1:51 am 01:51 Clear 44 6.7 37 2.8 76 76 E 10 17 30.09 1019 10 16 N/A
2:51 am 02:51 Clear 44 6.7 37 2.8 76 76 SE 8 13 30.09 1019 10 16 N/A
3:51 am 03:51 Cloudy 44 6.7 37 2.8 76 76 SE 6 9 30.08 1019 10 16 N/A
4:51 am 04:51 Mostly Clear 42 5.6 37 2.8 82 82 SSE 9 15 30.09 1019 10 16 N/A
5:51 am 05:51 Mostly Cloudy 44 6.7 36 2.2 73 73 SE 14 22 30.10 1019 10 16 N/A
6:51 am 06:51 Clear 42 5.6 35 1.7 76 76 SSE 10 17 30.13 1020 10 16 N/A
7:51 am 07:51 Sunny 43 6.1 36 2.2 76 76 SE 6 9 30.14 1021 10 16 N/A
8:51 am 08:51 Sunny 48 8.9 37 2.8 66 66 SE 9 15 30.14 1021 10 16 N/A
9:51 am 09:51 Sunny 51 10.6 36 2.2 56 56 ESE 14 22 30.16 1021 10 16 N/A
10:51 am 10:51 Sunny 55 12.8 36 2.2 49 49 SE 12 19 30.14 1021 10 16 N/A
11:51 am 11:51 Sunny 59 15 37 2.8 44 44 ESE 10 17 30.10 1019 10 16 N/A
12:51 pm 12:51 Sunny 63 17.2 36 2.2 37 37 E 13 20 30.04 1017 10 16 N/A
1:51 pm 13:51 Sunny 64 17.8 36 2.2 35 35 ESE 12 19 30.02 1017 10 16 N/A
2:51 pm 14:51 Sunny 64 17.8 35 1.7 34 34 SE 7 11 30.01 1016 10 16 N/A
3:51 pm 15:51 Sunny 64 17.8 35 1.7 34 34 ESE 5 7 30.01 1016 10 16 N/A
4:51 pm 16:51 Mostly Sunny 62 16.7 37 2.8 40 40 SE 3 6 30.01 1016 10 16 N/A
5:51 pm 17:51 Partly Cloudy 59 15 39 3.9 48 48 WSW 5 7 30.02 1017 10 16 N/A
6:51 pm 18:51 Mostly Clear 53 11.7 40 4.4 61 61 NW 6 9 30.06 1018 10 16 N/A
7:51 pm 19:51 Clear 51 10.6 40 4.4 66 66 WNW 6 9 30.07 1018 10 16 N/A
8:51 pm 20:51 Mostly Cloudy 52 11.1 40 4.4 64 64 N N/A 30.06 1018 10 16 N/A
9:51 pm 21:51 Cloudy 50 10 43 6.1 77 77 NNW 8 13 30.10 1019 10 16 N/A
10:51 pm 22:51 Mostly Clear 51 10.6 42 5.6 71 71 N 5 7 30.10 1019 10 16 N/A
11:51 pm 23:51 Partly Cloudy 48 8.9 43 6.1 83 83 W 10 17 30.11 1020 10 16 N/A

Powered by AerisWeather